Time,TemperatureF,DewpointF,PressureIn,WindDirection,WindDirectionDegrees,WindSpeedMPH,WindSpeedGustMPH,Humidity,HourlyPrecipIn,Conditions,Clouds,dailyrainin,SoftwareType,DateUTC
2013-08-04 00:03:00,63.0,-99.9,-100.00,North,0,0.0,-999.0,-999,-99.99,,,-99.99,,2013-08-04 04:03:00,
2013-08-04 00:12:00,63.0,-99.9,-100.00,North,0,0.0,-999.0,-999,-99.99,,,-99.99,,2013-08-04 04:12:00,
2013-08-04 00:42:00,62.0,-99.9,-100.00,North,0,0.0,-999.0,-999,-99.99,,,-99.99,,2013-08-04 04:42:00,
2013-08-04 00:52:00,62.0,-99.9,-100.00,North,0,0.0,-999.0,-999,-99.99,,,-99.99,,2013-08-04 04:52:00,
2013-08-04 01:02:00,62.0,-99.9,-100.00,North,0,0.0,-999.0,-999,-99.99,,,-99.99,,2013-08-04 05:02:00,
2013-08-04 01:12:00,62.0,-99.9,-100.00,North,0,0.0,-999.0,-999,-99.99,,,-99.99,,2013-08-04 05:12:00,
2013-08-04 01:22:00,61.0,-99.9,-100.00,North,0,0.0,-999.0,-999,-99.99,,,-99.99,,2013-08-04 05:22:00,
2013-08-04 01:32:00,61.0,-99.9,-100.00,North,0,0.0,-999.0,-999,-99.99,,,-99.99,,2013-08-04 05:32:00,
2013-08-04 01:42:00,61.0,-99.9,-100.00,North,0,0.0,-999.0,-999,-99.99,,,-99.99,,2013-08-04 05:42:00,
2013-08-04 01:52:00,60.0,-99.9,-100.00,North,0,0.0,-999.0,-999,-99.99,,,-99.99,,2013-08-04 05:52:00,
2013-08-04 02:02:00,60.0,-99.9,-100.00,North,0,0.0,-999.0,-999,-99.99,,,-99.99,,2013-08-04 06:02:00,
2013-08-04 02:12:00,60.0,-99.9,-100.00,North,0,0.0,-999.0,-999,-99.99,,,-99.99,,2013-08-04 06:12:00,
2013-08-04 02:22:00,60.0,-99.9,-100.00,North,0,0.0,-999.0,-999,-99.99,,,-99.99,,2013-08-04 06:22:00,
2013-08-04 02:32:00,59.0,-99.9,-100.00,North,0,0.0,-999.0,-999,-99.99,,,-99.99,,2013-08-04 06:32:00,
2013-08-04 02:43:00,59.0,-99.9,-100.00,North,0,0.0,-999.0,-999,-99.99,,,-99.99,,2013-08-04 06:43:00,
2013-08-04 02:52:00,59.0,-99.9,-100.00,North,0,0.0,-999.0,-999,-99.99,,,-99.99,,2013-08-04 06:52:00,
2013-08-04 03:02:00,59.0,-99.9,-100.00,North,0,0.0,-999.0,-999,-99.99,,,-99.99,,2013-08-04 07:02:00,
2013-08-04 03:12:00,59.0,-99.9,-100.00,North,0,0.0,-999.0,-999,-99.99,,,-99.99,,2013-08-04 07:12:00,
2013-08-04 03:22:00,59.0,-99.9,-100.00,North,0,0.0,-999.0,-999,-99.99,,,-99.99,,2013-08-04 07:22:00,
2013-08-04 03:32:00,58.0,-99.9,-100.00,North,0,0.0,-999.0,-999,-99.99,,,-99.99,,2013-08-04 07:32:00,
2013-08-04 03:43:00,58.0,-99.9,-100.00,North,0,0.0,-999.0,-999,-99.99,,,-99.99,,2013-08-04 07:43:00,
2013-08-04 03:53:00,58.0,-99.9,-100.00,North,0,0.0,-999.0,-999,-99.99,,,-99.99,,2013-08-04 07:53:00,
2013-08-04 04:02:00,58.0,-99.9,-100.00,North,0,0.0,-999.0,-999,-99.99,,,-99.99,,2013-08-04 08:02:00,
2013-08-04 04:12:00,58.0,-99.9,-100.00,North,0,0.0,-999.0,-999,-99.99,,,-99.99,,2013-08-04 08:12:00,
2013-08-04 04:23:00,58.0,-99.9,-100.00,North,0,2.0,-999.0,-999,-99.99,,,-99.99,,2013-08-04 08:23:00,
2013-08-04 04:33:00,58.0,-99.9,-100.00,North,0,0.0,-999.0,-999,-99.99,,,-99.99,,2013-08-04 08:33:00,
2013-08-04 04:43:00,58.0,-99.9,-100.00,North,0,0.0,-999.0,-999,-99.99,,,-99.99,,2013-08-04 08:43:00,
2013-08-04 04:53:00,58.0,-99.9,-100.00,North,0,0.0,-999.0,-999,-99.99,,,-99.99,,2013-08-04 08:53:00,
2013-08-04 05:02:00,57.0,-99.9,-100.00,North,0,3.0,-999.0,-999,-99.99,,,-99.99,,2013-08-04 09:02:00,
2013-08-04 05:12:00,57.0,-99.9,-100.00,North,0,3.0,-999.0,-999,-99.99,,,-99.99,,2013-08-04 09:12:00,
2013-08-04 05:22:00,57.0,-99.9,-100.00,North,0,0.0,-999.0,-999,-99.99,,,-99.99,,2013-08-04 09:22:00,
2013-08-04 05:32:00,57.0,-99.9,-100.00,North,0,0.0,-999.0,-999,-99.99,,,-99.99,,2013-08-04 09:32:00,
2013-08-04 05:43:00,57.0,-99.9,-100.00,North,0,0.0,-999.0,-999,-99.99,,,-99.99,,2013-08-04 09:43:00,
2013-08-04 05:52:00,57.0,-99.9,-100.00,North,0,2.0,-999.0,-999,-99.99,,,-99.99,,2013-08-04 09:52:00,
2013-08-04 06:02:00,57.0,-99.9,-100.00,North,0,0.0,-999.0,-999,-99.99,,,-99.99,,2013-08-04 10:02:00,
2013-08-04 06:12:00,57.0,-99.9,-100.00,North,0,0.0,-999.0,-999,-99.99,,,-99.99,,2013-08-04 10:12:00,
2013-08-04 06:22:00,57.0,-99.9,-100.00,North,0,0.0,-999.0,-999,-99.99,,,-99.99,,2013-08-04 10:22:00,
2013-08-04 06:32:00,56.0,-99.9,-100.00,North,0,0.0,-999.0,-999,-99.99,,,-99.99,,2013-08-04 10:32:00,
2013-08-04 06:43:00,56.0,-99.9,-100.00,North,0,0.0,-999.0,-999,-99.99,,,-99.99,,2013-08-04 10:43:00,
2013-08-04 06:53:00,56.0,-99.9,-100.00,North,0,0.0,-999.0,-999,-99.99,,,-99.99,,2013-08-04 10:53:00,
2013-08-04 07:02:00,56.0,-99.9,-100.00,North,0,0.0,-999.0,-999,-99.99,,,-99.99,,2013-08-04 11:02:00,
2013-08-04 07:12:00,56.0,-99.9,-100.00,North,0,0.0,-999.0,-999,-99.99,,,-99.99,,2013-08-04 11:12:00,
2013-08-04 07:22:00,55.0,-99.9,-100.00,North,0,0.0,-999.0,-999,-99.99,,,-99.99,,2013-08-04 11:22:00,
2013-08-04 07:32:00,56.0,-99.9,-100.00,North,0,2.0,-999.0,-999,-99.99,,,-99.99,,2013-08-04 11:32:00,
2013-08-04 07:42:00,56.0,-99.9,-100.00,North,0,2.0,-999.0,-999,-99.99,,,-99.99,,2013-08-04 11:42:00,
2013-08-04 07:53:00,57.0,-99.9,-100.00,North,0,0.0,-999.0,-999,-99.99,,,-99.99,,2013-08-04 11:53:00,
2013-08-04 08:01:00,59.0,-99.9,-100.00,North,0,4.0,-999.0,-999,-99.99,,,-99.99,,2013-08-04 12:01:00,
2013-08-04 08:02:00,59.0,-99.9,-100.00,North,0,3.0,-999.0,-999,-99.99,,,-99.99,,2013-08-04 12:02:00,
2013-08-04 08:13:00,59.0,-99.9,-100.00,North,0,3.0,-999.0,-999,-99.99,,,-99.99,,2013-08-04 12:13:00,
2013-08-04 08:22:00,59.0,-99.9,-100.00,North,0,4.0,-999.0,-999,-99.99,,,-99.99,,2013-08-04 12:22:00,
2013-08-04 08:33:00,59.0,-99.9,-100.00,North,0,4.0,-999.0,-999,-99.99,,,-99.99,,2013-08-04 12:33:00,
2013-08-04 08:43:00,59.0,-99.9,-100.00,North,0,4.0,-999.0,-999,-99.99,,,-99.99,,2013-08-04 12:43:00,
2013-08-04 08:53:00,59.0,-99.9,-100.00,North,0,4.0,-999.0,-999,-99.99,,,-99.99,,2013-08-04 12:53:00,
2013-08-04 09:22:00,63.0,-99.9,-100.00,North,4,0.0,-999.0,-999,-99.99,,,-99.99,,2013-08-04 13:22:00,
2013-08-04 09:32:00,64.0,-99.9,-100.00,NNE,28,1.0,-999.0,-999,-99.99,,,-99.99,,2013-08-04 13:32:00,
2013-08-04 09:43:00,64.0,-99.9,-100.00,NNE,28,1.0,-999.0,-999,-99.99,,,-99.99,,2013-08-04 13:43:00,
2013-08-04 09:52:00,64.0,-99.9,-100.00,North,0,2.0,-999.0,-999,-99.99,,,-99.99,,2013-08-04 13:52:00,
2013-08-04 10:02:00,66.0,-99.9,-100.00,North,2,0.0,-999.0,-999,-99.99,,,-99.99,,2013-08-04 14:02:00,
2013-08-04 10:12:00,66.0,-99.9,-100.00,North,2,0.0,-999.0,-999,-99.99,,,-99.99,,2013-08-04 14:12:00,
2013-08-04 10:22:00,66.0,-99.9,-100.00,North,3,2.0,-999.0,-999,-99.99,,,-99.99,,2013-08-04 14:22:00,
2013-08-04 10:32:00,68.0,-99.9,-100.00,NNE,32,0.0,-999.0,-999,-99.99,,,-99.99,,2013-08-04 14:32:00,
2013-08-04 10:43:00,68.0,-99.9,-100.00,NNE,32,0.0,-999.0,-999,-99.99,,,-99.99,,2013-08-04 14:43:00,
2013-08-04 10:53:00,70.0,-99.9,-100.00,NNE,32,0.0,-999.0,-999,-99.99,,,-99.99,,2013-08-04 14:53:00,
2013-08-04 11:02:00,69.0,-99.9,-100.00,NNE,32,3.0,-999.0,-999,-99.99,,,-99.99,,2013-08-04 15:02:00,
2013-08-04 11:12:00,69.0,-99.9,-100.00,NNE,32,3.0,-999.0,-999,-99.99,,,-99.99,,2013-08-04 15:12:00,
2013-08-04 11:22:00,71.0,-99.9,-100.00,NNE,32,0.0,-999.0,-999,-99.99,,,-99.99,,2013-08-04 15:22:00,
2013-08-04 11:32:00,71.0,-99.9,-100.00,NNE,32,0.0,-999.0,-999,-99.99,,,-99.99,,2013-08-04 15:32:00,
2013-08-04 11:43:00,71.0,-99.9,-100.00,NNE,32,0.0,-999.0,-999,-99.99,,,-99.99,,2013-08-04 15:43:00,
2013-08-04 11:53:00,70.0,-99.9,-100.00,NNE,32,4.0,-999.0,-999,-99.99,,,-99.99,,2013-08-04 15:53:00,
2013-08-04 12:02:00,71.0,-99.9,-100.00,North,0,4.0,-999.0,-999,-99.99,,,-99.99,,2013-08-04 16:02:00,
2013-08-04 12:12:00,71.0,-99.9,-100.00,North,0,4.0,-999.0,-999,-99.99,,,-99.99,,2013-08-04 16:12:00,
2013-08-04 12:22:00,71.0,-99.9,-100.00,North,0,1.0,-999.0,-999,-99.99,,,-99.99,,2013-08-04 16:22:00,
2013-08-04 12:33:00,70.0,-99.9,-100.00,North,0,0.0,-999.0,-999,-99.99,,,-99.99,,2013-08-04 16:33:00,
2013-08-04 12:43:00,70.0,-99.9,-100.00,North,0,0.0,-999.0,-999,-99.99,,,-99.99,,2013-08-04 16:43:00,
2013-08-04 12:53:00,73.0,-99.9,-100.00,North,2,6.0,-999.0,-999,-99.99,,,-99.99,,2013-08-04 16:53:00,
2013-08-04 13:02:00,73.0,-99.9,-100.00,NNE,12,3.0,-999.0,-999,-99.99,,,-99.99,,2013-08-04 17:02:00,
2013-08-04 13:12:00,73.0,-99.9,-100.00,NNE,12,3.0,-999.0,-999,-99.99,,,-99.99,,2013-08-04 17:12:00,
2013-08-04 13:22:00,72.0,-99.9,-100.00,North,4,8.0,-999.0,-999,-99.99,,,-99.99,,2013-08-04 17:22:00,
2013-08-04 13:32:00,74.0,-99.9,-100.00,North,0,7.0,-999.0,-999,-99.99,,,-99.99,,2013-08-04 17:32:00,
2013-08-04 13:43:00,74.0,-99.9,-100.00,North,0,7.0,-999.0,-999,-99.99,,,-99.99,,2013-08-04 17:43:00,
2013-08-04 13:53:00,75.0,-99.9,-100.00,NW,313,0.0,-999.0,-999,-99.99,,,-99.99,,2013-08-04 17:53:00,
2013-08-04 14:02:00,73.0,-99.9,-100.00,North,0,3.0,-999.0,-999,-99.99,,,-99.99,,2013-08-04 18:02:00,
2013-08-04 14:13:00,73.0,-99.9,-100.00,North,0,3.0,-999.0,-999,-99.99,,,-99.99,,2013-08-04 18:13:00,
2013-08-04 14:23:00,75.0,-99.9,-100.00,North,0,4.0,-999.0,-999,-99.99,,,-99.99,,2013-08-04 18:23:00,
2013-08-04 14:33:00,76.0,-99.9,-100.00,North,0,4.0,-999.0,-999,-99.99,,,-99.99,,2013-08-04 18:33:00,
2013-08-04 14:43:00,76.0,-99.9,-100.00,North,0,4.0,-999.0,-999,-99.99,,,-99.99,,2013-08-04 18:43:00,
2013-08-04 14:52:00,75.0,-99.9,-100.00,North,357,2.0,-999.0,-999,-99.99,,,-99.99,,2013-08-04 18:52:00,
2013-08-04 15:02:00,75.0,-99.9,-100.00,North,0,1.0,-999.0,-999,-99.99,,,-99.99,,2013-08-04 19:02:00,
2013-08-04 15:12:00,75.0,-99.9,-100.00,North,0,1.0,-999.0,-999,-99.99,,,-99.99,,2013-08-04 19:12:00,
2013-08-04 15:22:00,75.0,-99.9,-100.00,North,0,1.0,-999.0,-999,-99.99,,,-99.99,,2013-08-04 19:22:00,
2013-08-04 15:33:00,75.0,-99.9,-100.00,North,358,7.0,-999.0,-999,-99.99,,,-99.99,,2013-08-04 19:33:00,
2013-08-04 15:43:00,75.0,-99.9,-100.00,North,358,7.0,-999.0,-999,-99.99,,,-99.99,,2013-08-04 19:43:00,
2013-08-04 15:53:00,75.0,-99.9,-100.00,North,354,3.0,-999.0,-999,-99.99,,,-99.99,,2013-08-04 19:53:00,
2013-08-04 16:02:00,75.0,-99.9,-100.00,North,0,0.0,-999.0,-999,-99.99,,,-99.99,,2013-08-04 20:02:00,
2013-08-04 16:13:00,75.0,-99.9,-100.00,North,0,0.0,-999.0,-999,-99.99,,,-99.99,,2013-08-04 20:13:00,
2013-08-04 16:22:00,76.0,-99.9,-100.00,NNW,334,0.0,-999.0,-999,-99.99,,,-99.99,,2013-08-04 20:22:00,
2013-08-04 16:33:00,74.0,-99.9,-100.00,North,0,2.0,-999.0,-999,-99.99,,,-99.99,,2013-08-04 20:33:00,
2013-08-04 16:43:00,74.0,-99.9,-100.00,North,0,2.0,-999.0,-999,-99.99,,,-99.99,,2013-08-04 20:43:00,
2013-08-04 16:53:00,75.0,-99.9,-100.00,North,0,3.0,-999.0,-999,-99.99,,,-99.99,,2013-08-04 20:53:00,
2013-08-04 17:02:00,75.0,-99.9,-100.00,North,9,1.0,-999.0,-999,-99.99,,,-99.99,,2013-08-04 21:02:00,
2013-08-04 17:12:00,75.0,-99.9,-100.00,North,9,1.0,-999.0,-999,-99.99,,,-99.99,,2013-08-04 21:12:00,
2013-08-04 17:22:00,75.0,-99.9,-100.00,North,351,5.0,-999.0,-999,-99.99,,,-99.99,,2013-08-04 21:22:00,
2013-08-04 17:32:00,74.0,-99.9,-100.00,North,358,7.0,-999.0,-999,-99.99,,,-99.99,,2013-08-04 21:32:00,
2013-08-04 17:43:00,74.0,-99.9,-100.00,North,358,7.0,-999.0,-999,-99.99,,,-99.99,,2013-08-04 21:43:00,
2013-08-04 17:53:00,74.0,-99.9,-100.00,North,0,0.0,-999.0,-999,-99.99,,,-99.99,,2013-08-04 21:53:00,
2013-08-04 18:02:00,74.0,-99.9,-100.00,North,0,0.0,-999.0,-999,-99.99,,,-99.99,,2013-08-04 22:02:00,
2013-08-04 18:12:00,74.0,-99.9,-100.00,North,0,0.0,-999.0,-999,-99.99,,,-99.99,,2013-08-04 22:12:00,
2013-08-04 18:22:00,75.0,-99.9,-100.00,NNE,24,1.0,-999.0,-999,-99.99,,,-99.99,,2013-08-04 22:22:00,
2013-08-04 18:32:00,74.0,-99.9,-100.00,North,2,2.0,-999.0,-999,-99.99,,,-99.99,,2013-08-04 22:32:00,
2013-08-04 18:43:00,74.0,-99.9,-100.00,North,2,2.0,-999.0,-999,-99.99,,,-99.99,,2013-08-04 22:43:00,
2013-08-04 18:53:00,74.0,-99.9,-100.00,NNE,29,4.0,-999.0,-999,-99.99,,,-99.99,,2013-08-04 22:53:00,
2013-08-04 19:02:00,74.0,-99.9,-100.00,North,0,0.0,-999.0,-999,-99.99,,,-99.99,,2013-08-04 23:02:00,
2013-08-04 19:12:00,74.0,-99.9,-100.00,North,0,0.0,-999.0,-999,-99.99,,,-99.99,,2013-08-04 23:12:00,
2013-08-04 19:22:00,73.0,-99.9,-100.00,North,0,5.0,-999.0,-999,-99.99,,,-99.99,,2013-08-04 23:22:00,
2013-08-04 19:32:00,73.0,-99.9,-100.00,North,8,0.0,-999.0,-999,-99.99,,,-99.99,,2013-08-04 23:32:00,
2013-08-04 19:43:00,73.0,-99.9,-100.00,North,8,0.0,-999.0,-999,-99.99,,,-99.99,,2013-08-04 23:43:00,
2013-08-04 19:53:00,72.0,-99.9,-100.00,North,7,3.0,-999.0,-999,-99.99,,,-99.99,,2013-08-04 23:53:00,
2013-08-04 20:02:00,72.0,-99.9,-100.00,North,7,0.0,-999.0,-999,-99.99,,,-99.99,,2013-08-05 00:02:00,
2013-08-04 20:12:00,72.0,-99.9,-100.00,North,7,0.0,-999.0,-999,-99.99,,,-99.99,,2013-08-05 00:12:00,
2013-08-04 20:22:00,72.0,-99.9,-100.00,North,7,0.0,-999.0,-999,-99.99,,,-99.99,,2013-08-05 00:22:00,
2013-08-04 20:33:00,71.0,-99.9,-100.00,North,7,0.0,-999.0,-999,-99.99,,,-99.99,,2013-08-05 00:33:00,
2013-08-04 20:42:00,71.0,-99.9,-100.00,North,7,0.0,-999.0,-999,-99.99,,,-99.99,,2013-08-05 00:42:00,
2013-08-04 20:53:00,70.0,-99.9,-100.00,North,7,0.0,-999.0,-999,-99.99,,,-99.99,,2013-08-05 00:53:00,
2013-08-04 21:02:00,70.0,-99.9,-100.00,North,7,0.0,-999.0,-999,-99.99,,,-99.99,,2013-08-05 01:02:00,
2013-08-04 21:12:00,70.0,-99.9,-100.00,North,7,0.0,-999.0,-999,-99.99,,,-99.99,,2013-08-05 01:12:00,
2013-08-04 21:22:00,69.0,-99.9,-100.00,North,7,0.0,-999.0,-999,-99.99,,,-99.99,,2013-08-05 01:22:00,
2013-08-04 21:33:00,69.0,-99.9,-100.00,North,7,0.0,-999.0,-999,-99.99,,,-99.99,,2013-08-05 01:33:00,
2013-08-04 21:43:00,69.0,-99.9,-100.00,North,7,0.0,-999.0,-999,-99.99,,,-99.99,,2013-08-05 01:43:00,
2013-08-04 21:53:00,69.0,-99.9,-100.00,North,7,0.0,-999.0,-999,-99.99,,,-99.99,,2013-08-05 01:53:00,
2013-08-04 22:02:00,69.0,-99.9,-100.00,North,7,0.0,-999.0,-999,-99.99,,,-99.99,,2013-08-05 02:02:00,
2013-08-04 22:12:00,69.0,-99.9,-100.00,North,7,0.0,-999.0,-999,-99.99,,,-99.99,,2013-08-05 02:12:00,
2013-08-04 22:22:00,68.0,-99.9,-100.00,North,7,0.0,-999.0,-999,-99.99,,,-99.99,,2013-08-05 02:22:00,
2013-08-04 22:33:00,68.0,-99.9,-100.00,North,7,0.0,-999.0,-999,-99.99,,,-99.99,,2013-08-05 02:33:00,
2013-08-04 22:43:00,68.0,-99.9,-100.00,North,7,0.0,-999.0,-999,-99.99,,,-99.99,,2013-08-05 02:43:00,
2013-08-04 22:53:00,68.0,-99.9,-100.00,North,7,0.0,-999.0,-999,-99.99,,,-99.99,,2013-08-05 02:53:00,
2013-08-04 23:02:00,67.0,-99.9,-100.00,North,7,0.0,-999.0,-999,-99.99,,,-99.99,,2013-08-05 03:02:00,
2013-08-04 23:12:00,67.0,-99.9,-100.00,North,7,0.0,-999.0,-999,-99.99,,,-99.99,,2013-08-05 03:12:00,
2013-08-04 23:22:00,67.0,-99.9,-100.00,North,7,0.0,-999.0,-999,-99.99,,,-99.99,,2013-08-05 03:22:00,
2013-08-04 23:32:00,67.0,-99.9,-100.00,North,7,0.0,-999.0,-999,-99.99,,,-99.99,,2013-08-05 03:32:00,
2013-08-04 23:42:00,67.0,-99.9,-100.00,North,7,0.0,-999.0,-999,-99.99,,,-99.99,,2013-08-05 03:42:00,
2013-08-04 23:53:00,67.0,-99.9,-100.00,North,7,0.0,-999.0,-999,-99.99,,,-99.99,,2013-08-05 03:53:00,